Location: Coupvray
(48.8929°N, 2.7967°E)
Time: 07:02:10
(UTC+00:00)

Meteor 1-28 Rocket - Pass Details

Date: 14 July 2020
Orbit: 505 x 522 km, 97.3° (Epoch: 14 August)

Event Time Altitude Azimuth Distance (km) Brightness Sun altitude
Exits shadow 02:31:18 - 162° (SSE) 2,312 6.2 -11.3°
Reaches altitude 10° 02:32:42 10° 161° (SSE) 1,720 5.5 -11.2°
Maximum altitude 02:36:23 77° 76° (ENE) 528 3.3 -10.8°
Drops below altitude 10° 02:40:09 10° 350° (N) 1,744 6.5 -10.4°
Sets 02:42:15 0° 349° (N) 2,639 7.4 -10.2°
